EW1029 Weather Reports


Display with metric or nautical units.
time (UTC)temp
F
wind
direction
speed
MPH
gust
MPH
rain 1hr
in
rain 24hr
in
rain mn
in
humidity
%
barometer
mb
20181210063105 37 360 0.0 0.0 0.02 0.75 0.02 100 1015.6
20181210061533 38 360 0.0 0.0 0.02 0.75 0.02 100 1015.6
20181210060034 38 360 0.0 1.0 0.01 0.74 0.01 100 1015.7
20181210054530 38 360 0.0 3.0 0.01 0.79 0.01 100 1015.8
20181210053028 38 360 0.0 4.0 0.01 0.78 0.00 100 1015.6
20181210051535 38 360 0.0 2.0 0.01 0.78 0.00 100 1015.6
20181210050026 38 360 0.0 3.0 0.02 0.78 0.00 100 1015.5
20181210044714 38 360 0.0 0.0 0.02 0.85 0.78 100 1015.5
20181210043148 39 360 0.0 3.0 0.01 0.84 0.77 100 1015.4
20181210041623 39 360 0.0 2.0 0.02 0.84 0.77 100 1015.6
20181210040230 39 360 0.0 2.0 0.01 0.83 0.76 100 1015.6
20181210034552 40 360 0.0 0.0 0.02 0.91 0.76 100 1015.6
20181210033117 39 360 0.0 0.0 0.02 0.91 0.76 100 1015.7
20181210031717 39 360 0.0 0.0 0.01 0.90 0.75 100 1015.6
20181210030106 39 360 0.0 0.0 0.02 0.90 0.75 100 1015.7
20181210024551 40 360 0.0 0.0 0.01 0.97 0.74 100 1015.6
20181210023037 40 360 0.0 0.0 0.02 0.97 0.74 100 1015.4
20181210021530 40 360 0.0 0.0 0.02 0.97 0.74 100 1015.4
20181210020023 40 360 0.0 0.0 0.01 0.96 0.73 100 1015.3
20181210014521 40 360 0.0 0.0 0.02 1.04 0.73 100 1015.5
20181210013007 40 360 0.0 0.0 0.01 1.03 0.72 100 1015.5
20181210011658 40 360 0.0 0.0 0.02 1.03 0.72 100 1015.4
20181210010206 40 360 0.0 0.0 0.02 1.03 0.72 100 1015.4
20181210004616 40 360 0.0 0.0 0.02 1.10 0.71 100 1015.3
20181210003114 40 360 0.0 0.0 0.02 1.10 0.71 100 1015.3
20181210001830 40 360 0.0 0.0 0.02 1.09 0.70 100 1015.2
20181210000113 40 360 0.0 0.0 0.02 1.09 0.70 100 1015.1
20181209234602 40 360 0.0 0.0 0.02 1.14 0.69 100 1015.0
20181209233038 40 360 0.0 0.0 0.02 1.14 0.69 100 1014.8
20181209231547 40 360 0.0 0.0 0.02 1.13 0.68 100 1014.7
20181209230048 40 360 0.0 0.0 0.02 1.13 0.68 100 1014.9
20181209224533 40 360 0.0 0.0 0.02 1.19 0.67 100 1014.6
20181209223020 40 360 0.0 0.0 0.02 1.19 0.67 100 1014.6
20181209221539 40 360 0.0 0.0 0.02 1.18 0.66 100 1014.6
20181209214625 40 360 0.0 0.0 0.02 1.21 0.65 100 1014.5
20181209213151 40 360 0.0 0.0 0.03 1.21 0.65 100 1014.4
20181209211649 40 360 0.0 0.0 0.03 1.20 0.64 100 1014.1
20181209210121 40 360 1.0 6.0 0.04 1.20 0.64 100 1014.2
20181209204711 40 360 0.0 3.0 0.03 1.23 0.63 100 1014.2
20181209203119 41 360 0.0 0.0 0.03 1.22 0.62 100 1014.1
20181209201544 40 360 0.0 3.0 0.02 1.21 0.61 100 1013.9
20181209200056 41 360 0.0 3.0 0.02 1.20 0.60 100 1014.0
20181209194607 40 360 0.0 0.0 0.03 1.23 0.60 100 1014.1
20181209193028 40 360 0.0 6.0 0.03 1.22 0.59 100 1014.1
20181209191536 41 360 1.0 7.0 0.02 1.21 0.57 100 1014.2
20181209190016 41 360 1.0 8.0 0.03 1.21 0.57 100 1014.1
20181209184513 40 360 1.0 10.0 0.03 1.24 0.56 100 1014.4
20181209183011 40 360 4.0 8.0 0.03 1.23 0.56 100 1014.5
20181209181735 40 360 2.0 9.0 0.04 1.23 0.56 100 1014.5
20181209180139 40 360 3.0 9.0 0.03 1.22 0.55 100 1014.5
20181209174611 40 360 6.0 11.0 0.04 1.25 0.54 100 1014.6
20181209173158 40 360 5.0 10.0 0.03 1.24 0.53 100 1014.9
20181209171641 40 360 3.0 9.0 0.03 1.23 0.52 100 1015.0
20181209170104 40 360 3.0 8.0 0.04 1.23 0.52 100 1015.3
20181209164613 39 360 5.0 10.0 0.03 1.27 0.50 100 1015.7
20181209163053 39 360 4.0 8.0 0.04 1.27 0.50 100 1016.0
20181209161603 39 360 5.0 9.0 0.04 1.26 0.49 100 1016.0
20181209160029 39 360 3.0 8.0 0.04 1.25 0.48 100 1016.3
20181209154527 39 360 1.0 9.0 0.04 1.28 0.47 100 1016.4
20181209153040 39 360 2.0 9.0 0.04 1.27 0.46 100 1016.6
20181209151511 39 360 1.0 6.0 0.04 1.26 0.45 100 1016.5
20181209150003 38 360 0.0 8.0 0.04 1.25 0.44 100 1016.7
20181209144655 38 360 0.0 4.0 0.04 1.28 0.43 100 1016.8
20181209143102 39 360 0.0 8.0 0.04 1.27 0.42 100 1016.9
20181209141615 38 360 0.0 7.0 0.04 1.26 0.41 100 1016.8
20181209140103 38 360 2.0 9.0 0.04 1.25 0.40 100 1017.0
20181209134639 38 360 1.0 7.0 0.04 1.27 0.39 100 1017.0
20181209133142 38 360 2.0 6.0 0.04 1.26 0.38 100 1016.8
20181209131545 38 360 0.0 3.0 0.05 1.25 0.37 100 1016.8
20181209130121 38 360 3.0 9.0 0.05 1.24 0.36 100 1016.8
20181209124541 38 360 2.0 7.0 0.05 1.27 0.35 100 1016.8
20181209123049 38 360 0.0 7.0 0.05 1.26 0.34 100 1016.3
20181209121525 39 360 0.0 7.0 0.04 1.24 0.32 100 1016.0
20181209120050 39 360 1.0 8.0 0.04 1.23 0.31 100 1015.9
20181209114521 39 360 1.0 7.0 0.04 1.26 0.30 100 1015.8
20181209113002 39 360 1.0 11.0 0.04 1.25 0.28 100 1016.3
20181209111614 39 360 0.0 6.0 0.04 1.24 0.28 100 1016.2
20181209110207 39 360 1.0 11.0 0.04 1.23 0.27 100 1016.3
20181209104649 39 360 2.0 12.0 0.04 1.24 0.26 100 1016.2
20181209103123 39 360 2.0 6.0 0.04 1.23 0.25 100 1016.3
20181209101558 39 360 1.0 10.0 0.04 1.22 0.24 100 1015.9
20181209100047 40 360 4.0 10.0 0.04 1.21 0.23 100 1016.5
20181209094536 40 360 3.0 9.0 0.04 1.20 0.22 100 1016.3
20181209093039 39 360 3.0 10.0 0.04 1.19 0.21 100 1016.6
20181209091539 39 360 5.0 12.0 0.04 1.18 0.20 100 1016.8
20181209090023 39 360 1.0 9.0 0.04 1.17 0.19 100 1017.1
20181209084523 38 360 3.0 11.0 0.04 1.15 0.18 100 1017.5
20181209083010 38 360 3.0 12.0 0.04 1.14 0.17 100 1018.3
20181209081523 38 360 5.0 10.0 0.04 1.13 0.16 100 1018.9
20181209074709 37 360 1.0 6.0 0.05 1.12 0.14 100 1019.3
20181209073207 36 360 0.0 5.0 0.05 1.11 0.13 100 1019.4
20181209071600 36 360 1.0 8.0 0.05 1.10 0.12 100 1019.7
20181209070201 36 360 0.0 9.0 0.04 1.08 0.10 100 1020.6
20181209064652 36 360 2.0 11.0 0.05 1.07 0.09 100 1021.0